This is the latest recevied weather packets stored in our database for station/object AB1AU. If no packets are shown the sender has not sent any weather packets the latest 10 day(s).
| Time | Temp. | Humidity | Pressure | Rain* | Wind** | Luminosity | Snow |
|---|---|---|---|---|---|---|---|
| 1788622818 | 20° C | 67% | 1012.7 hPa | 0 mm | - | 87 W/m² | - |
| 1788622514 | 19.44° C | 67% | 1012.9 hPa | 0 mm | - | 103 W/m² | - |
| 1788622214 | 19.44° C | 68% | 1012.6 hPa | 0 mm | - | 113 W/m² | - |
| 1788621914 | 18.89° C | 68% | 1012.8 hPa | 0 mm | - | 104 W/m² | - |
| 1788621609 | 18.89° C | 68% | 1012.6 hPa | 0 mm | - | 98 W/m² | - |
| 1788621304 | 18.89° C | 68% | 1012.7 hPa | 0 mm | - | 55 W/m² | - |
| 1788620999 | 18.89° C | 68% | 1012.6 hPa | 0 mm | - | 76 W/m² | - |
| 1788620711 | 18.89° C | 69% | 1012.6 hPa | 0 mm | - | 111 W/m² | - |
| 1788620390 | 18.89° C | 69% | 1012.5 hPa | 0 mm | - | 95 W/m² | - |
| 1788620085 | 18.33° C | 70% | 1012.6 hPa | 0 mm | - | 100 W/m² | - |
| 1788619778 | 18.89° C | 70% | 1012.6 hPa | 0 mm | - | 77 W/m² | - |
| 1788619475 | 18.89° C | 70% | 1012.5 hPa | 0 mm | - | 75 W/m² | - |
| 1788619173 | 18.89° C | 70% | 1012.7 hPa | 0 mm | - | 87 W/m² | - |
| 1788618873 | 18.89° C | 70% | 1012.6 hPa | 0 mm | - | 95 W/m² | - |
| 1788618573 | 18.89° C | 71% | 1012.4 hPa | 0 mm | - | 89 W/m² | - |
| 1788618271 | 18.89° C | 71% | 1012.5 hPa | 0 mm | - | 52 W/m² | - |
| 1788617967 | 18.89° C | 70% | 1012.3 hPa | 0 mm | - | 70 W/m² | - |
| 1788617662 | 18.89° C | 71% | 1012.4 hPa | 0 mm | - | 85 W/m² | - |
| 1788617358 | 18.89° C | 71% | 1012 hPa | 0 mm | - | 67 W/m² | - |
| 1788617053 | 18.89° C | 71% | 1012.1 hPa | 0 mm | - | 86 W/m² | - |
| 1788616752 | 18.89° C | 71% | 1012.1 hPa | 0 mm | - | 70 W/m² | - |
| 1788616448 | 18.89° C | 71% | 1012.2 hPa | 0 mm | - | 80 W/m² | - |
| 1788616143 | 18.89° C | 71% | 1012 hPa | 0 mm | - | 75 W/m² | - |
| 1788615842 | 18.33° C | 71% | 1012.1 hPa | 0 mm | - | 84 W/m² | - |
| 1788615536 | 18.89° C | 71% | 1011.9 hPa | 0 mm | - | 76 W/m² | - |
* Rain latest hour (hover to see other rain measurements)
** Current wind speed in m/s (hover to see current wind gust speed)